Location: Winthrop
(48.4780°N, 120.1850°W)
Time: 20:09:26
(UTC-07:00)

Explorer 7 - Pass Details

Date: 03 February 2023
Orbit: 478 x 657 km, 50.3° (Epoch: 25 March)

Event Time Altitude Azimuth Distance (km) Brightness Sun altitude
Rises 11:15:05 0° 209° (SSW) 2,635 11.0 23.8°
Reaches altitude 10° 11:17:30 10° 195° (SSW) 1,782 10.6 23.9°
Maximum altitude 11:20:49 25° 140° (SE) 1,152 10.0 24.0°
Drops below altitude 10° 11:24:19 10° 86° (E) 1,885 9.7 24.1°
Sets 11:26:58 0° 73° (ENE) 2,826 10.4 24.2°
